Regional Weather Roundup
Issued by NWS

Home | Current Version | Previous Version | Text Only | Print | Product List | Glossary On
Versions: 1 2 3 4 5 6 7 8 9 10 11 12 13 14 15 16 17 18 19 20 21 22 23 24 25 26 27 28 29 30 31 32 33 34 35 36 37 38 39 40 41 42 43 44 45 46 47 48 49 50
000
ASUS43 KBIS 241810
RWRND

NORTH DAKOTA REGIONAL WEATHER ROUNDUP
NATIONAL WEATHER SERVICE BISMARCK ND
100 PM CDT TUE MAY 24 2016

NOTE: "FAIR" INDICATES FEW OR NO CLOUDS BELOW 12,000 FEET WITH NO
SIGNIFICANT WEATHER AND/OR OBSTRUCTIONS TO VISIBILITY.


NDZ001>003-009>011-017-241900-
NORTHWEST NORTH DAKOTA

CITY           SKY/WX    TMP DP  RH WIND       PRES   REMARKS
WILLISTON      CLOUDY    64  40  41 SW10      29.89R
6HR MIN TEMP:  45; 6HR MAX TEMP:  66;

MINOT          SUNNY     75  40  28 S13G22    29.88R
MINOT AFB      MOSUNNY   71  39  32 SW14G21   29.86S
$$

NDZ018>021-031>035-040>046-241900-
SOUTHWEST NORTH DAKOTA

CITY           SKY/WX    TMP DP  RH WIND       PRES   REMARKS
BISMARCK       SUNNY     73  41  31 N5        29.89F
6HR MIN TEMP:  50; 6HR MAX TEMP:  74;

DICKINSON      SUNNY     66  37  34 SW10      29.90F
GARRISON         N/A     71  41  33 SW9       29.90S
6HR MIN TEMP:  46; 6HR MAX TEMP:  71;

HETTINGER ARPT SUNNY     68  40  35 VRB3      29.92F
$$

NDZ004>008-012>016-024-026-027-054-241900-
NORTHEAST NORTH DAKOTA

CITY           SKY/WX    TMP DP  RH WIND       PRES   REMARKS
GRAND FORKS    MOSUNNY   74  51  44 SW7       29.86R
GRND FRKS AFB  SUNNY     73  53  50 NW6       29.87R
DEVILS LAKE    SUNNY     72  45  37 SW5       29.89S
$$

NDZ022-023-025-028>030-036>039-047>053-241900-
SOUTHEAST NORTH DAKOTA

CITY           SKY/WX    TMP DP  RH WIND       PRES   REMARKS
FARGO          SUNNY     81  44  27 W13       29.84F
6HR MIN TEMP:  61; 6HR MAX TEMP:  82; 6HR PCP: TRACE;

JAMESTOWN      SUNNY     73  49  42 CALM      29.88S
$$





USA.gov is the U.S. government's official web portal to all federal, state and local government web resources and services.